Time,TemperatureF,DewpointF,PressureIn,WindDirection,WindDirectionDegrees,WindSpeedMPH,WindSpeedGustMPH,Humidity,HourlyPrecipIn,Conditions,Clouds,dailyrainin,SoftwareType,DateUTC
2013-07-22 00:13:00,63.4,62.0,29.99,NNE,24,0.0,0.0,94,0.00,,,0.00,weatherlink.com 1.10,2013-07-22 04:13:00,
2013-07-22 00:28:00,63.0,61.0,29.98,NNE,24,0.0,0.0,94,0.00,,,0.00,weatherlink.com 1.10,2013-07-22 04:28:00,
2013-07-22 00:43:00,62.7,61.0,29.98,NNE,24,0.0,0.0,94,0.00,,,0.00,weatherlink.com 1.10,2013-07-22 04:43:00,
2013-07-22 00:58:00,62.4,61.0,29.98,North,11,0.0,1.0,95,0.00,,,0.00,weatherlink.com 1.10,2013-07-22 04:58:00,
2013-07-22 01:13:00,62.1,60.0,29.98,SW,216,0.0,3.0,93,0.00,,,0.00,weatherlink.com 1.10,2013-07-22 05:13:00,
2013-07-22 01:28:00,62.3,60.0,29.98,SW,216,0.0,2.0,92,0.00,,,0.00,weatherlink.com 1.10,2013-07-22 05:28:00,
2013-07-22 01:43:00,61.9,60.0,29.98,WSW,250,0.0,1.0,93,0.00,,,0.00,weatherlink.com 1.10,2013-07-22 05:43:00,
2013-07-22 01:59:00,61.7,60.0,29.98,WSW,250,0.0,1.0,93,0.00,,,0.00,weatherlink.com 1.10,2013-07-22 05:59:00,
2013-07-22 02:13:00,61.5,60.0,29.98,WSW,250,0.0,1.0,93,0.00,,,0.00,weatherlink.com 1.10,2013-07-22 06:13:00,
2013-07-22 02:28:00,61.4,59.0,29.98,WSW,250,0.0,0.0,92,0.00,,,0.00,weatherlink.com 1.10,2013-07-22 06:28:00,
2013-07-22 02:43:00,61.2,59.0,29.98,WSW,250,0.0,0.0,92,0.00,,,0.00,weatherlink.com 1.10,2013-07-22 06:43:00,
2013-07-22 02:58:00,60.8,59.0,29.98,WSW,250,0.0,1.0,92,0.00,,,0.00,weatherlink.com 1.10,2013-07-22 06:58:00,
2013-07-22 03:13:00,61.1,59.0,29.98,WSW,250,0.0,1.0,93,0.00,,,0.00,weatherlink.com 1.10,2013-07-22 07:13:00,
2013-07-22 03:28:00,61.6,59.0,29.98,WSW,247,0.0,2.0,90,0.00,,,0.00,weatherlink.com 1.10,2013-07-22 07:28:00,
2013-07-22 03:43:00,61.8,59.0,29.98,WSW,247,0.0,1.0,90,0.00,,,0.00,weatherlink.com 1.10,2013-07-22 07:43:00,
2013-07-22 03:58:00,61.9,59.0,29.98,WSW,247,0.0,1.0,89,0.00,,,0.00,weatherlink.com 1.10,2013-07-22 07:58:00,
2013-07-22 04:13:00,62.2,58.0,29.98,West,262,0.0,1.0,87,0.00,,,0.00,weatherlink.com 1.10,2013-07-22 08:13:00,
2013-07-22 04:28:00,62.2,58.0,29.98,West,262,0.0,2.0,87,0.00,,,0.00,weatherlink.com 1.10,2013-07-22 08:28:00,
2013-07-22 04:43:00,62.4,58.0,29.98,SW,223,1.0,3.0,86,0.00,,,0.00,weatherlink.com 1.10,2013-07-22 08:43:00,
2013-07-22 04:58:00,62.3,58.0,29.98,West,260,1.0,4.0,87,0.00,,,0.00,weatherlink.com 1.10,2013-07-22 08:58:00,
2013-07-22 05:13:00,62.2,58.0,29.98,West,259,0.0,2.0,87,0.00,,,0.00,weatherlink.com 1.10,2013-07-22 09:13:00,
2013-07-22 05:28:00,62.2,58.0,29.99,West,259,0.0,1.0,87,0.00,,,0.00,weatherlink.com 1.10,2013-07-22 09:28:00,
2013-07-22 05:43:00,62.3,59.0,29.99,West,259,0.0,1.0,88,0.00,,,0.00,weatherlink.com 1.10,2013-07-22 09:43:00,
2013-07-22 05:58:00,62.4,59.0,29.99,West,263,0.0,2.0,87,0.00,,,0.00,weatherlink.com 1.10,2013-07-22 09:58:00,
2013-07-22 06:13:00,62.4,59.0,29.99,West,259,0.0,4.0,87,0.00,,,0.00,weatherlink.com 1.10,2013-07-22 10:13:00,
2013-07-22 06:28:00,62.6,58.0,30.00,West,259,0.0,1.0,86,0.00,,,0.00,weatherlink.com 1.10,2013-07-22 10:28:00,
2013-07-22 06:43:00,62.9,59.0,30.00,West,274,1.0,3.0,87,0.00,,,0.00,weatherlink.com 1.10,2013-07-22 10:43:00,
2013-07-22 06:58:00,63.3,59.0,30.00,West,274,2.0,2.0,87,0.00,,,0.00,weatherlink.com 1.10,2013-07-22 10:58:00,
2013-07-22 07:13:00,63.7,60.0,30.00,West,274,0.0,2.0,86,0.00,,,0.00,weatherlink.com 1.10,2013-07-22 11:13:00,
2013-07-22 07:28:00,64.0,60.0,30.00,West,274,1.0,2.0,86,0.00,,,0.00,weatherlink.com 1.10,2013-07-22 11:28:00,
2013-07-22 07:43:00,64.2,60.0,30.00,NW,306,0.0,3.0,85,0.00,,,0.00,weatherlink.com 1.10,2013-07-22 11:43:00,
2013-07-22 07:58:00,64.3,59.0,30.00,WSW,248,0.0,2.0,84,0.00,,,0.00,weatherlink.com 1.10,2013-07-22 11:58:00,
2013-07-22 08:13:00,64.4,60.0,30.02,WSW,238,0.0,2.0,85,0.00,,,0.00,weatherlink.com 1.10,2013-07-22 12:13:00,
2013-07-22 08:28:00,64.6,60.0,30.01,WSW,238,0.0,1.0,85,0.00,,,0.00,weatherlink.com 1.10,2013-07-22 12:28:00,
2013-07-22 08:43:00,65.3,61.0,30.01,WSW,238,0.0,0.0,87,0.00,,,0.00,weatherlink.com 1.10,2013-07-22 12:43:00,
2013-07-22 08:58:00,65.1,61.0,30.01,WSW,251,0.0,1.0,87,0.00,,,0.00,weatherlink.com 1.10,2013-07-22 12:58:00,
2013-07-22 09:15:00,65.4,62.0,30.00,WNW,284,0.0,1.0,89,0.00,,,0.00,weatherlink.com 1.10,2013-07-22 13:15:00,
2013-07-22 09:28:00,65.9,63.0,30.01,WNW,284,0.0,0.0,89,0.00,,,0.00,weatherlink.com 1.10,2013-07-22 13:28:00,
2013-07-22 09:43:00,66.1,63.0,30.01,WNW,284,0.0,1.0,88,0.00,,,0.00,weatherlink.com 1.10,2013-07-22 13:43:00,
2013-07-22 09:58:00,66.1,63.0,30.01,WNW,284,0.0,1.0,89,0.01,,,0.01,weatherlink.com 1.10,2013-07-22 13:58:00,
2013-07-22 10:13:00,66.0,63.0,30.01,WNW,284,0.0,0.0,90,0.01,,,0.01,weatherlink.com 1.10,2013-07-22 14:13:00,
2013-07-22 10:28:00,66.2,63.0,30.01,WNW,284,0.0,0.0,90,0.01,,,0.01,weatherlink.com 1.10,2013-07-22 14:28:00,
2013-07-22 10:43:00,66.5,64.0,30.01,WNW,284,0.0,1.0,91,0.01,,,0.01,weatherlink.com 1.10,2013-07-22 14:43:00,
2013-07-22 10:58:00,67.0,64.0,30.01,WNW,284,0.0,1.0,91,0.01,,,0.02,weatherlink.com 1.10,2013-07-22 14:58:00,
2013-07-22 11:13:00,67.4,65.0,30.01,WNW,284,0.0,1.0,91,0.01,,,0.02,weatherlink.com 1.10,2013-07-22 15:13:00,
2013-07-22 11:28:00,67.9,66.0,30.01,SSE,158,0.0,3.0,94,0.03,,,0.04,weatherlink.com 1.10,2013-07-22 15:28:00,
2013-07-22 11:43:00,67.9,66.0,30.00,East,88,2.0,5.0,93,0.03,,,0.04,weatherlink.com 1.10,2013-07-22 15:43:00,
2013-07-22 11:58:00,68.4,66.0,30.00,ENE,77,1.0,7.0,92,0.02,,,0.04,weatherlink.com 1.10,2013-07-22 15:58:00,
2013-07-22 12:13:00,68.8,66.0,30.00,ESE,107,0.0,6.0,91,0.02,,,0.04,weatherlink.com 1.10,2013-07-22 16:13:00,
2013-07-22 12:28:00,69.2,66.0,29.99,ENE,77,2.0,6.0,88,0.00,,,0.04,weatherlink.com 1.10,2013-07-22 16:28:00,
2013-07-22 12:44:00,69.9,66.0,29.99,SE,138,3.0,6.0,87,0.00,,,0.04,weatherlink.com 1.10,2013-07-22 16:44:00,
2013-07-22 12:59:00,70.5,66.0,29.99,SSE,148,0.0,2.0,86,0.00,,,0.04,weatherlink.com 1.10,2013-07-22 16:59:00,
2013-07-22 13:14:00,70.1,65.0,29.98,East,85,1.0,5.0,85,0.00,,,0.04,weatherlink.com 1.10,2013-07-22 17:14:00,
2013-07-22 13:29:00,70.1,66.0,29.98,ESE,109,0.0,3.0,86,0.00,,,0.04,weatherlink.com 1.10,2013-07-22 17:29:00,
2013-07-22 13:44:00,70.2,66.0,29.98,East,95,0.0,3.0,86,0.00,,,0.04,weatherlink.com 1.10,2013-07-22 17:44:00,
2013-07-22 13:59:00,70.7,66.0,29.97,East,91,0.0,2.0,85,0.00,,,0.04,weatherlink.com 1.10,2013-07-22 17:59:00,
2013-07-22 14:14:00,71.4,66.0,29.97,East,91,3.0,5.0,82,0.00,,,0.04,weatherlink.com 1.10,2013-07-22 18:14:00,
2013-07-22 14:44:00,71.5,66.0,29.96,ENE,57,0.0,3.0,83,0.00,,,0.04,weatherlink.com 1.10,2013-07-22 18:44:00,
2013-07-22 14:59:00,71.5,66.0,29.96,East,88,2.0,5.0,83,0.00,,,0.04,weatherlink.com 1.10,2013-07-22 18:59:00,
2013-07-22 15:14:00,71.4,66.0,29.96,East,87,0.0,2.0,83,0.00,,,0.04,weatherlink.com 1.10,2013-07-22 19:14:00,
2013-07-22 15:29:00,71.3,66.0,29.96,ESE,111,0.0,1.0,84,0.00,,,0.04,weatherlink.com 1.10,2013-07-22 19:29:00,
2013-07-22 15:59:00,71.2,67.0,29.95,ESE,111,1.0,1.0,85,0.00,,,0.04,weatherlink.com 1.10,2013-07-22 19:59:00,
2013-07-22 16:14:00,70.9,67.0,29.95,ENE,71,0.0,3.0,86,0.00,,,0.04,weatherlink.com 1.10,2013-07-22 20:14:00,
2013-07-22 16:31:00,71.3,67.0,29.95,East,80,1.0,4.0,86,0.00,,,0.04,weatherlink.com 1.10,2013-07-22 20:31:00,
2013-07-22 16:44:00,71.9,67.0,29.94,SE,140,1.0,4.0,85,0.00,,,0.04,weatherlink.com 1.10,2013-07-22 20:44:00,
2013-07-22 16:59:00,72.5,67.0,29.93,ESE,115,5.0,5.0,84,0.00,,,0.04,weatherlink.com 1.10,2013-07-22 20:59:00,
2013-07-22 17:14:00,72.9,68.0,29.92,ESE,103,2.0,8.0,83,0.00,,,0.04,weatherlink.com 1.10,2013-07-22 21:14:00,
2013-07-22 17:29:00,73.9,69.0,29.92,NNE,30,0.0,4.0,83,0.00,,,0.04,weatherlink.com 1.10,2013-07-22 21:29:00,
2013-07-22 17:44:00,73.7,68.0,29.91,East,96,0.0,8.0,82,0.00,,,0.04,weatherlink.com 1.10,2013-07-22 21:44:00,
2013-07-22 17:59:00,73.2,67.0,29.90,ESE,116,0.0,6.0,82,0.00,,,0.04,weatherlink.com 1.10,2013-07-22 21:59:00,
2013-07-22 18:14:00,73.4,68.0,29.90,ENE,78,0.0,3.0,83,0.00,,,0.04,weatherlink.com 1.10,2013-07-22 22:14:00,
2013-07-22 18:29:00,73.0,68.0,29.90,ENE,76,1.0,4.0,83,0.00,,,0.04,weatherlink.com 1.10,2013-07-22 22:29:00,
2013-07-22 18:44:00,72.6,68.0,29.91,East,81,0.0,3.0,84,0.00,,,0.04,weatherlink.com 1.10,2013-07-22 22:44:00,
2013-07-22 18:59:00,72.1,67.0,29.91,NE,40,0.0,3.0,85,0.00,,,0.04,weatherlink.com 1.10,2013-07-22 22:59:00,
2013-07-22 19:14:00,72.0,68.0,29.91,NE,40,0.0,1.0,86,0.00,,,0.04,weatherlink.com 1.10,2013-07-22 23:14:00,
2013-07-22 19:29:00,71.9,68.0,29.91,NE,40,0.0,1.0,87,0.00,,,0.04,weatherlink.com 1.10,2013-07-22 23:29:00,
2013-07-22 19:44:00,71.6,68.0,29.91,NE,40,0.0,1.0,87,0.00,,,0.04,weatherlink.com 1.10,2013-07-22 23:44:00,
2013-07-22 19:59:00,71.5,68.0,29.90,NE,40,0.0,1.0,88,0.00,,,0.04,weatherlink.com 1.10,2013-07-22 23:59:00,
2013-07-22 20:14:00,71.2,68.0,29.90,NE,40,0.0,0.0,89,0.00,,,0.04,weatherlink.com 1.10,2013-07-23 00:14:00,
2013-07-22 20:29:00,70.8,68.0,29.90,NE,40,0.0,0.0,90,0.00,,,0.04,weatherlink.com 1.10,2013-07-23 00:29:00,
2013-07-22 20:44:00,70.4,68.0,29.91,NE,40,0.0,0.0,91,0.00,,,0.04,weatherlink.com 1.10,2013-07-23 00:44:00,
2013-07-22 20:59:00,70.1,68.0,29.91,NE,40,0.0,0.0,92,0.00,,,0.04,weatherlink.com 1.10,2013-07-23 00:59:00,
2013-07-22 21:14:00,70.2,68.0,29.91,NE,40,0.0,1.0,92,0.00,,,0.04,weatherlink.com 1.10,2013-07-23 01:14:00,
2013-07-22 21:29:00,70.1,67.0,29.91,ENE,67,0.0,4.0,90,0.00,,,0.04,weatherlink.com 1.10,2013-07-23 01:29:00,
2013-07-22 21:44:00,70.0,66.0,29.91,East,86,0.0,5.0,88,0.00,,,0.04,weatherlink.com 1.10,2013-07-23 01:44:00,
2013-07-22 21:59:00,69.8,65.0,29.91,East,84,1.0,3.0,85,0.00,,,0.04,weatherlink.com 1.10,2013-07-23 01:59:00,
2013-07-22 22:14:00,69.5,64.0,29.91,ENE,66,2.0,4.0,83,0.00,,,0.04,weatherlink.com 1.10,2013-07-23 02:14:00,
2013-07-22 22:29:00,69.1,64.0,29.90,ENE,73,1.0,1.0,83,0.00,,,0.04,weatherlink.com 1.10,2013-07-23 02:29:00,
2013-07-22 22:44:00,68.8,64.0,29.91,ENE,73,0.0,1.0,83,0.00,,,0.04,weatherlink.com 1.10,2013-07-23 02:44:00,
2013-07-22 22:59:00,68.2,64.0,29.90,ENE,73,0.0,1.0,85,0.00,,,0.04,weatherlink.com 1.10,2013-07-23 02:59:00,
2013-07-22 23:14:00,67.7,63.0,29.90,ENE,73,0.0,0.0,86,0.00,,,0.04,weatherlink.com 1.10,2013-07-23 03:14:00,
2013-07-22 23:29:00,67.0,63.0,29.89,ENE,73,0.0,1.0,87,0.00,,,0.04,weatherlink.com 1.10,2013-07-23 03:29:00,
2013-07-22 23:46:00,66.6,64.0,29.90,ENE,73,0.0,0.0,90,0.00,,,0.04,weatherlink.com 1.10,2013-07-23 03:46:00,
2013-07-22 23:59:00,66.4,64.0,29.89,ENE,73,0.0,0.0,90,0.00,,,0.04,weatherlink.com 1.10,2013-07-23 03:59:00,